Wind_Speed
12 15 11 12 12 10 12 12 11 11 10 11 11 12 11 10 9 9 9 10 10 12 13 14 14 13 9 6 10 9 4 8 21 24 19 9 6 6 7 6 4 4 4 3 7 9 7
15 15 13 12 13 12 11 12 11 11 11 12 13 12 11 9 10 10 10 10 10 13 14 14 14 14 4 14 12 27 25 18 5 24 20 13 7 6 5 6 10 6 7 8 5 10 5
15 16 10 11 13 12 11 12 12 12 12 12 14 13 12 11 11 11 12 11 10 11 13 14 14 13 8 17 5 2 8 21 15 21 16 21 18 6 6 3 5 3 3 7 6 5 7
14 15 12 12 12 13 12 13 13 13 13 13 14 13 12 13 14 15 13 13 11 11 11 14 14 11 7 1 26 19 9 6 12 18 25 16 27 3 3 2 4 6 2 3 4 2 4
15 14 13 12 13 14 14 14 14 13 13 15 13 13 13 16 14 16 16 13 14 12 9 9 8 6 6 5 16 21 20 8 6 18 15 17 5 5 4 4 4 3 4 6 7 5 3
14 15 14 14 14 14 14 15 14 15 14 14 15 16 15 16 15 15 20 13 8 7 6 4 1 3 7 4 7 12 22 20 4 10 9 10 7 6 4 4 7 6 4 3 5 2 2
16 15 16 14 15 14 13 15 14 16 16 15 17 19 17 17 15 17 17 9 4 2 7 8 9 3 2 15 11 12 15 11 5 5 12 13 9 12 13 13 3 6 4 6 4 4 2
14 15 15 15 14 13 14 13 15 16 16 16 17 20 20 15 14 10 23 5 7 4 5 13 4 15 13 1 4 8 22 9 6 9 15 8 16 14 7 8 5 3 3 5 6 1 3
14 13 15 15 14 14 13 13 14 16 15 16 14 17 18 16 10 13 22 19 13 5 1 6 9 4 5 10 7 13 19 6 5 13 22 10 7 14 12 6 10 3 5 4 5 7 3
17 15 15 15 15 14 14 14 13 16 14 16 13 14 15 12 5 8 9 21 10 11 4 6 9 7 8 2 5 18 22 9 5 18 20 6 5 15 15 10 7 9 6 3 3 4 3
18 17 16 15 15 15 15 15 13 15 14 15 14 13 13 9 5 6 5 26 20 5 2 11 8 7 12 8 5 15 24 9 9 10 8 6 14 11 15 16 10 4 6 6 3 3 2
18 18 18 16 16 16 15 15 15 14 15 15 15 13 9 8 16 4 13 24 13 3 6 10 8 10 10 11 4 10 9 0 3 9 2 4 5 9 7 4 11 6 5 2 3 2 2
19 18 18 17 17 16 15 15 17 15 15 15 16 15 10 9 5 14 25 7 3 4 4 7 7 10 12 7 10 11 17 16 9 12 15 1 3 3 7 6 3 5 7 2 1 1 6
20 17 20 20 20 17 15 15 18 17 16 16 17 15 14 19 18 23 7 2 6 3 9 5 7 12 7 8 9 14 10 8 11 3 13 7 6 8 5 6 6 7 8 5 6 4 4
20 18 20 21 21 18 15 16 17 17 17 16 18 13 9 21 30 28 5 3 4 5 7 11 12 7 5 10 2 10 19 11 12 12 9 9 5 2 4 5 12 6 9 4 5 2 1
20 18 19 21 21 19 16 15 17 16 17 16 5 3 4 15 34 20 3 4 7 6 12 14 7 6 9 14 7 5 5 10 15 10 6 7 5 1 2 6 3 7 8 2 2 3 4
19 17 19 21 20 18 16 14 15 15 15 10 4 1 5 25 25 6 3 6 3 11 10 7 6 6 7 7 5 4 8 3 8 7 4 6 4 2 6 5 8 2 4 4 4 3 4
19 17 18 19 18 17 15 14 14 14 13 2 2 1 12 25 5 3 7 3 7 12 0 3 4 5 10 8 5 4 7 5 8 7 8 3 6 6 2 1 4 4 7 6 5 4 1
20 18 17 18 18 16 15 13 13 11 8 4 2 2 10 7 3 2 2 2 3 4 1 4 4 5 9 6 5 4 5 3 7 6 8 7 2 5 2 1 2 4 4 4 5 3 6
20 19 16 17 18 16 15 13 12 10 7 2 2 2 2 3 2 2 3 4 3 1 3 4 5 6 7 3 3 6 6 0 2 3 5 7 3 6 9 4 6 5 5 5 6 4 5
22 18 15 17 17 16 15 14 12 9 7 6 2 3 3 3 4 5 4 7 3 5 7 2 3 12 5 5 4 5 3 5 3 5 3 4 4 3 3 4 4 7 9 10 9 7 7
22 18 14 16 17 16 14 13 12 8 6 5 3 3 1 1 0 5 4 5 4 3 4 1 7 4 4 4 3 8 7 4 5 3 2 3 2 3 2 3 2 2 4 8 4 4 2
23 18 15 15 16 16 14 12 12 7 6 4 2 1 2 0 2 3 3 5 6 5 2 3 7 7 10 1 0 5 6 7 6 7 3 5 5 3 3 1 2 4 8 8 5 4 7
25 19 15 16 16 16 13 12 11 8 8 5 4 2 3 2 2 1 2 2 5 3 5 3 6 5 4 3 4 6 10 12 11 7 2 5 4 3 3 2 1 3 1 6 6 2 4
24 21 18 16 16 16 14 12 11 8 8 6 4 3 3 2 1 2 4 5 6 6 4 4 4 3 3 3 4 5 4 3 5 6 6 3 5 3 5 4 4 0 4 7 6 3 2
23 23 18 17 15 16 15 12 11 9 7 6 3 5 2 5 3 2 4 3 4 4 3 2 1 1 4 3 4 3 2 2 2 2 4 5 6 4 2 4 7 1 2 4 4 2 6
23 23 18 17 15 17 15 13 12 9 7 6 3 4 2 4 2 1 3 5 5 3 4 3 3 2 1 2 3 3 4 1 4 7 5 3 3 4 2 2 5 3 3 2 5 3 4
23 24 18 18 16 17 16 14 12 10 8 6 2 1 2 3 1 3 3 4 3 2 4 5 4 1 2 3 3 3 3 4 3 3 5 6 6 4 3 2 6 2 4 6 3 3 6
21 25 20 17 18 18 17 15 13 11 10 5 2 3 5 4 3 3 6 6 3 2 5 2 1 3 4 4 1 3 2 2 3 3 3 1 4 4 6 4 0 1 2 4 4 6 5
Wind_Direction
332 317 306 293 288 289 287 285 289 294 295 293 290 294 291 282 279 270 270 262 259 248 241 238 229 219 195 216 229 211 22 14 222 215 215 206 170 157 182 178 137 202 259 242 249 276 256
327 323 299 301 282 281 287 281 285 291 289 287 287 288 282 285 273 269 266 261 253 243 239 235 227 200 185 240 260 240 256 288 259 205 218 203 205 191 159 194 183 204 220 269 286 275 256
327 332 316 307 291 281 291 284 285 286 286 286 288 287 287 279 280 273 265 261 252 240 235 230 220 196 213 226 228 95 278 259 266 213 214 209 222 204 138 146 204 197 296 300 261 260 256
321 329 323 312 297 287 292 286 282 280 280 281 286 288 293 281 277 268 263 254 255 246 246 230 216 194 241 320 245 257 277 300 233 214 216 224 206 240 199 190 81 146 142 270 279 307 283
316 321 315 315 304 293 285 287 279 274 273 277 279 284 291 287 286 259 246 241 234 236 242 238 213 198 264 229 228 243 230 276 204 191 217 237 192 210 175 146 152 168 200 210 303 205 229
309 317 318 313 305 300 291 280 281 273 267 271 275 283 292 286 288 277 234 228 224 210 211 176 147 159 266 222 195 215 215 233 239 150 221 215 186 190 178 166 194 173 205 213 232 255 206
308 308 317 319 317 294 293 283 284 273 273 270 275 278 293 287 276 278 205 167 107 203 198 200 176 249 287 210 182 191 182 183 237 147 197 197 192 189 186 194 153 156 191 215 255 260 268
308 312 311 315 320 302 298 285 286 277 276 275 278 287 285 287 275 252 181 182 190 162 186 230 219 219 249 169 183 185 164 173 177 179 205 190 204 195 145 157 175 140 182 253 284 210 191
300 306 313 315 317 317 302 290 284 281 279 280 287 291 289 288 264 200 178 189 172 154 317 201 210 236 233 220 233 181 167 191 132 173 203 202 207 183 163 156 178 187 195 251 239 335 312
293 300 301 309 312 313 317 302 289 284 283 280 281 287 298 295 193 207 201 193 208 168 243 181 193 248 169 203 250 166 180 176 167 191 197 225 156 174 173 176 164 221 197 207 281 20 261
291 295 299 302 305 310 313 314 297 286 282 280 278 288 295 236 276 184 210 193 186 193 173 156 174 167 141 208 152 175 180 214 167 171 177 172 171 171 173 196 168 214 150 193 218 209 354
292 294 298 301 302 303 310 312 311 294 288 284 283 284 289 282 241 254 154 159 153 225 215 180 157 171 148 206 215 139 176 305 171 153 66 201 149 155 160 160 178 156 81 60 53 88 290
287 290 293 299 303 298 305 305 312 310 295 291 289 285 257 243 182 146 143 131 133 241 156 152 166 157 167 164 177 156 178 206 170 156 189 173 162 143 141 136 76 100 115 286 279 280 229
285 288 294 297 299 298 297 301 306 313 305 299 295 287 255 223 195 153 144 95 227 136 195 152 133 139 168 158 194 169 204 194 232 176 150 166 201 172 173 178 150 180 174 163 195 202 257
283 285 294 298 303 299 297 301 305 312 311 308 305 283 218 205 171 154 141 203 242 189 185 149 129 139 194 180 259 190 197 201 203 181 157 170 193 160 162 126 143 194 202 191 101 10 48
277 282 295 292 295 296 297 301 307 312 315 315 275 219 203 192 171 151 171 253 226 133 115 144 145 175 175 178 194 135 159 183 162 194 158 190 99 34 135 96 76 174 159 111 5 224 247
271 282 293 292 288 293 297 303 307 315 320 316 182 161 356 168 166 175 227 224 248 140 141 165 122 159 185 152 194 125 167 193 187 176 102 132 109 178 134 188 157 155 165 58 124 138 176
267 281 295 288 286 291 296 302 306 316 329 233 186 70 150 150 187 184 232 235 162 145 72 127 95 135 147 140 149 142 180 224 178 147 143 183 120 141 158 269 178 162 167 154 151 214 135
266 276 290 284 284 285 292 298 301 312 323 306 154 112 174 220 242 180 307 124 120 166 293 149 143 163 140 149 123 131 258 293 148 134 165 176 110 103 90 71 340 188 177 127 115 98 188
264 271 285 279 280 285 283 291 297 304 298 266 198 135 154 207 267 254 133 170 204 284 273 210 160 149 144 129 52 135 169 115 129 107 88 92 141 153 190 184 141 175 176 167 142 152 175
258 262 283 274 277 281 274 285 291 296 286 204 192 212 180 202 237 222 186 169 205 178 218 174 120 154 152 127 92 123 126 108 46 135 83 129 134 122 37 134 137 178 178 179 193 192 185
255 256 278 270 271 272 270 276 283 292 299 209 187 159 160 254 131 152 205 201 188 139 26 85 111 106 85 127 162 166 145 139 172 161 131 78 158 111 65 59 108 186 183 181 186 161 190
252 248 267 264 263 268 265 263 272 276 268 210 215 298 154 64 111 170 225 164 175 143 40 21 130 100 62 295 167 86 87 81 124 134 127 151 134 120 169 103 112 294 214 184 178 179 152
251 237 260 258 259 261 256 252 261 263 259 243 211 133 118 233 146 218 182 92 129 70 118 346 59 77 208 124 112 76 71 75 64 44 65 127 100 78 127 94 195 240 293 173 130 118 146
247 235 253 252 252 254 247 244 250 254 262 238 210 176 147 132 159 80 95 101 87 74 55 55 10 3 289 59 62 59 19 74 35 29 19 48 125 107 144 192 292 203 182 151 156 197 169
239 232 245 245 245 244 238 235 238 244 249 227 237 209 131 126 238 130 123 155 143 122 98 94 17 180 80 77 56 103 202 185 184 71 15 51 70 102 92 146 209 229 134 129 128 242 179
241 232 237 240 236 234 231 228 229 233 238 222 224 225 122 110 288 37 146 163 126 89 99 132 133 115 36 102 103 154 188 176 170 171 171 75 40 129 130 232 287 232 159 169 126 210 139
267 230 232 234 226 227 223 219 217 223 228 209 193 202 198 102 358 28 1 127 93 108 143 174 100 307 52 84 131 179 136 203 98 155 177 158 136 170 117 152 266 166 71 163 165 69 129
289 223 222 225 217 220 218 215 211 224 212 196 186 141 102 83 143 73 78 58 63 143 126 21 152 156 167 93 86 113 117 119 149 209 20 200 166 180 176 215 239 10 138 109 122 133 169
Height
783 781 780 780 778 777 778 778 776 775 774 773 772 772 770 770 769 769 769 770 770 772 774 776 777 781 786 786 777 773 773 774 777 783 785 786 788 792 796 796 795 798 793 789 787 788 790
780 778 777 776 776 775 775 775 774 773 771 771 771 769 768 767 766 767 767 767 767 769 771 774 777 780 784 782 771 771 773 774 776 779 781 782 781 783 789 791 793 790 790 789 788 786 787
777 775 774 773 773 772 771 771 770 769 768 768 767 766 764 764 764 765 765 766 766 767 768 771 774 778 778 765 769 768 771 771 774 776 777 778 779 780 781 787 784 785 793 792 788 784 784
774 772 772 770 769 768 767 768 766 766 765 765 764 762 761 760 760 761 762 763 764 765 767 768 772 775 768 764 767 768 770 769 770 772 777 776 776 779 780 778 784 793 795 805 786 781 778
772 770 769 766 764 765 763 764 763 762 761 761 760 759 758 757 756 756 758 760 762 764 766 769 772 773 766 761 762 763 768 770 769 771 775 776 777 779 778 785 792 792 801 806 797 780 782
770 767 765 763 761 760 759 759 759 759 757 756 756 755 753 752 751 751 753 757 760 764 766 769 771 775 764 757 757 759 762 769 769 771 777 774 776 781 784 791 797 795 797 798 801 783 783
767 764 762 759 758 756 755 755 755 754 753 752 752 750 749 747 746 745 747 753 762 765 761 757 758 757 752 753 754 756 759 766 767 768 769 766 772 772 779 776 782 788 795 798 790 784 786
763 761 759 756 754 752 750 750 750 750 749 748 747 747 745 742 741 740 742 745 746 746 755 753 752 755 751 753 754 753 757 763 762 766 767 767 766 765 774 779 782 786 792 797 790 783 785
759 757 755 753 750 749 747 746 746 745 745 744 743 742 740 737 736 735 735 738 743 746 749 748 748 748 750 754 751 750 752 755 761 765 762 758 759 762 771 781 784 788 795 794 796 789 782
755 753 751 749 747 745 743 741 741 741 740 740 738 737 736 734 736 734 733 736 742 745 751 746 746 743 745 749 748 743 746 750 757 761 760 761 761 761 767 779 781 796 787 786 790 798 806
750 748 747 745 743 741 739 738 736 736 735 736 735 734 733 731 731 729 729 732 740 747 742 735 738 733 735 744 739 743 742 746 754 753 755 758 764 765 767 769 778 783 780 786 788 799 801
746 744 742 741 739 737 735 734 732 732 731 731 730 730 730 729 728 726 725 732 741 737 726 733 728 733 738 740 736 741 744 747 745 751 753 755 752 758 764 767 772 776 786 791 800 804 812
741 739 737 736 735 733 731 730 728 728 726 725 724 725 726 724 723 725 728 732 736 724 728 726 726 726 729 735 736 736 745 751 743 757 762 759 760 755 755 771 773 780 786 808 807 813 807
736 735 733 731 730 729 727 725 724 723 721 720 718 718 718 718 718 722 728 733 722 715 717 711 719 723 728 727 730 735 738 740 741 736 750 761 775 761 753 759 776 783 787 802 804 809 800
731 730 728 726 725 724 722 721 719 719 716 714 712 709 709 709 715 719 729 725 710 697 702 705 717 722 727 721 728 730 737 738 734 731 745 764 760 753 749 753 763 783 783 777 794 799 802
725 724 723 722 721 719 718 717 715 714 711 709 707 706 705 704 711 719 724 714 698 686 696 704 708 713 719 720 723 730 733 722 725 727 726 744 764 753 753 752 762 767 770 786 796 792 795
720 719 718 716 716 715 714 713 711 710 707 704 704 703 702 701 710 714 709 709 689 686 691 694 702 710 707 717 720 727 730 725 718 727 724 736 749 761 757 760 766 770 774 782 782 793 793
714 713 712 711 711 711 710 709 708 707 704 703 701 699 704 707 705 702 699 683 684 687 688 689 691 697 704 714 714 720 723 718 713 718 730 729 750 765 758 754 755 756 765 768 783 789 801
707 708 707 706 706 706 706 706 705 704 702 701 701 699 705 705 691 691 688 686 684 688 688 690 693 692 695 706 713 715 718 712 713 715 723 729 748 768 762 758 757 755 760 765 775 782 794
700 701 702 701 701 701 702 702 701 700 699 699 698 696 702 703 697 690 688 689 688 690 690 686 687 689 693 700 703 717 722 712 711 712 716 718 740 745 753 744 753 760 759 762 762 782 784
695 695 696 696 696 697 697 698 697 697 696 697 697 685 686 693 691 687 685 685 687 688 687 682 685 688 691 702 706 714 715 716 715 717 721 723 735 737 743 741 742 746 749 760 761 757 764
688 689 690 691 691 692 693 693 693 693 692 692 691 688 689 689 682 683 685 685 684 684 682 682 688 690 688 693 695 707 708 710 714 719 719 725 738 733 743 742 740 742 744 755 753 757 752
682 683 684 686 687 687 688 689 690 689 689 686 685 683 681 686 684 683 680 679 681 681 687 684 685 691 697 698 698 700 704 709 709 713 723 728 734 739 746 745 743 748 745 750 749 747 749
676 677 679 681 682 683 684 685 686 685 685 682 680 682 684 680 681 680 678 678 683 682 687 691 686 689 703 700 699 701 706 712 716 723 720 727 734 742 757 749 761 732 733 737 743 745 743
669 671 673 675 677 678 680 681 682 682 682 679 678 680 681 685 686 682 683 688 691 695 697 696 699 704 702 701 706 713 717 712 724 731 728 723 733 750 750 757 743 732 737 739 735 746 743
662 665 668 670 672 674 676 677 678 678 679 677 676 676 676 683 684 680 686 686 694 698 703 704 704 705 704 708 707 725 724 717 723 728 729 730 731 735 772 756 747 727 726 726 726 745 744
656 659 662 665 667 669 671 673 675 676 676 675 674 674 674 683 686 682 684 686 692 698 707 704 702 704 707 713 720 726 728 724 726 728 733 737 744 742 746 748 741 727 726 725 743 743 745
650 653 657 659 662 665 668 670 671 673 673 673 673 673 673 681 685 684 683 685 690 692 695 704 705 706 712 711 715 725 725 727 726 729 731 730 746 751 758 750 743 728 728 733 739 744 745
645 648 651 654 658 662 664 666 669 670 670 671 672 672 672 675 686 685 686 685 685 686 695 703 699 701 702 717 723 729 728 737 729 725 732 727 728 733 736 735 731 731 729 735 737 742 747